TimeCDT,TemperatureF,Dew PointF,Humidity,Sea Level PressureIn,VisibilityMPH,Wind Direction,Wind SpeedMPH,Gust SpeedMPH,PrecipitationIn,Events,Conditions,WindDirDegrees,DateUTC
12:15 AM,37.4,17.6,45,30.04,10.0,Calm,Calm,-,N/A,,Overcast,0,2013-03-23 05:15:00
12:35 AM,37.4,19.4,48,30.05,10.0,NNW,3.5,-,N/A,,Overcast,340,2013-03-23 05:35:00
12:55 AM,37.4,19.4,48,30.05,10.0,Calm,Calm,-,N/A,,Overcast,0,2013-03-23 05:55:00
1:15 AM,37.4,17.6,45,30.05,10.0,NNW,3.5,-,N/A,,Overcast,340,2013-03-23 06:15:00
1:35 AM,37.4,17.6,45,30.04,10.0,Calm,Calm,-,N/A,,Overcast,0,2013-03-23 06:35:00
1:55 AM,37.4,19.4,48,30.04,10.0,Calm,Calm,-,N/A,,Overcast,0,2013-03-23 06:55:00
2:15 AM,37.4,17.6,45,30.03,10.0,Calm,Calm,-,N/A,,Overcast,0,2013-03-23 07:15:00
2:35 AM,37.4,19.4,48,30.04,10.0,Calm,Calm,-,N/A,,Overcast,0,2013-03-23 07:35:00
2:55 AM,37.4,19.4,48,30.03,10.0,ENE,6.9,-,N/A,,Overcast,70,2013-03-23 07:55:00
3:15 AM,37.4,21.2,52,30.04,10.0,ENE,5.8,-,N/A,,Overcast,70,2013-03-23 08:15:00
3:35 AM,37.4,21.2,52,30.05,10.0,ENE,4.6,-,N/A,,Overcast,70,2013-03-23 08:35:00
3:55 AM,37.4,21.2,52,30.03,10.0,ENE,3.5,-,N/A,,Overcast,60,2013-03-23 08:55:00
4:15 AM,37.4,21.2,52,30.03,10.0,NE,5.8,-,N/A,,Overcast,50,2013-03-23 09:15:00
4:35 AM,37.4,21.2,52,30.02,10.0,ENE,6.9,-,N/A,,Overcast,70,2013-03-23 09:35:00
4:55 AM,35.6,21.2,56,30.03,10.0,ENE,4.6,-,N/A,,Overcast,60,2013-03-23 09:55:00
5:15 AM,35.6,21.2,56,30.04,10.0,NE,5.8,-,N/A,,Overcast,50,2013-03-23 10:15:00
5:35 AM,35.6,21.2,56,30.04,10.0,NE,3.5,-,N/A,,Overcast,40,2013-03-23 10:35:00
5:55 AM,35.6,21.2,56,30.04,10.0,NE,4.6,-,N/A,,Overcast,40,2013-03-23 10:55:00
6:15 AM,33.8,21.2,60,30.03,10.0,ENE,4.6,-,N/A,,Scattered Clouds,60,2013-03-23 11:15:00
6:35 AM,33.8,21.2,60,30.04,10.0,NE,4.6,-,N/A,,Scattered Clouds,50,2013-03-23 11:35:00
6:55 AM,33.8,21.2,60,30.05,10.0,NNE,5.8,-,N/A,,Mostly Cloudy,30,2013-03-23 11:55:00
7:15 AM,33.8,23.0,65,30.07,10.0,NNE,5.8,-,N/A,,Overcast,30,2013-03-23 12:15:00
7:35 AM,35.6,23.0,60,30.07,10.0,NE,4.6,-,N/A,,Overcast,50,2013-03-23 12:35:00
7:55 AM,35.6,23.0,60,30.07,10.0,NNE,4.6,-,N/A,,Overcast,30,2013-03-23 12:55:00
8:15 AM,35.6,23.0,60,30.08,10.0,NE,4.6,-,N/A,,Overcast,50,2013-03-23 13:15:00
8:35 AM,35.6,23.0,60,30.08,10.0,ENE,4.6,-,N/A,,Overcast,60,2013-03-23 13:35:00
8:55 AM,37.4,21.2,52,30.08,10.0,ENE,5.8,-,N/A,,Overcast,60,2013-03-23 13:55:00
9:15 AM,37.4,21.2,52,30.07,10.0,ENE,6.9,-,N/A,,Overcast,70,2013-03-23 14:15:00
9:35 AM,39.2,21.2,49,30.08,10.0,East,10.4,-,N/A,,Overcast,80,2013-03-23 14:35:00
9:55 AM,39.2,21.2,49,30.08,10.0,East,10.4,-,N/A,,Overcast,80,2013-03-23 14:55:00
10:15 AM,42.8,21.2,42,30.07,10.0,ENE,10.4,-,N/A,,Overcast,70,2013-03-23 15:15:00
10:35 AM,42.8,19.4,39,30.07,10.0,ENE,12.7,17.3,N/A,,Overcast,70,2013-03-23 15:35:00
10:55 AM,44.6,19.4,37,30.08,10.0,East,9.2,-,N/A,,Overcast,80,2013-03-23 15:55:00
11:15 AM,44.6,17.6,34,30.08,10.0,East,6.9,-,N/A,,Overcast,90,2013-03-23 16:15:00
11:35 AM,44.6,17.6,34,30.08,10.0,ENE,8.1,-,N/A,,Overcast,60,2013-03-23 16:35:00
11:55 AM,46.4,17.6,32,30.08,10.0,East,10.4,-,N/A,,Overcast,100,2013-03-23 16:55:00
12:15 PM,46.4,17.6,32,30.07,10.0,NE,6.9,17.3,N/A,,Mostly Cloudy,50,2013-03-23 17:15:00
12:35 PM,48.2,17.6,30,30.06,10.0,NNE,9.2,-,N/A,,Scattered Clouds,30,2013-03-23 17:35:00
1:15 PM,48.2,15.8,27,30.06,10.0,ESE,8.1,18.4,N/A,,Clear,110,2013-03-23 18:15:00
1:35 PM,48.2,15.8,27,30.05,10.0,NE,3.5,16.1,N/A,,Clear,50,2013-03-23 18:35:00
1:55 PM,48.2,15.8,27,30.04,10.0,ENE,4.6,-,N/A,,Clear,70,2013-03-23 18:55:00
2:15 PM,50.0,15.8,26,30.03,10.0,ENE,10.4,-,N/A,,Clear,60,2013-03-23 19:15:00
2:35 PM,51.8,15.8,24,30.01,10.0,NE,9.2,-,N/A,,Clear,50,2013-03-23 19:35:00
2:55 PM,50.0,15.8,26,30.00,10.0,NE,9.2,16.1,N/A,,Clear,50,2013-03-23 19:55:00
3:15 PM,51.8,15.8,24,29.99,10.0,NE,10.4,-,N/A,,Clear,40,2013-03-23 20:15:00
3:35 PM,51.8,15.8,24,29.97,10.0,NNE,9.2,-,N/A,,Clear,30,2013-03-23 20:35:00
3:55 PM,51.8,17.6,26,29.96,10.0,ENE,8.1,-,N/A,,Clear,60,2013-03-23 20:55:00
4:15 PM,48.2,15.8,27,29.95,10.0,ENE,8.1,-,N/A,,Clear,60,2013-03-23 21:15:00
4:35 PM,50.0,15.8,26,29.94,10.0,NE,11.5,18.4,N/A,,Scattered Clouds,50,2013-03-23 21:35:00
4:55 PM,50.0,15.8,26,29.93,10.0,NE,11.5,16.1,N/A,,Mostly Cloudy,50,2013-03-23 21:55:00
5:15 PM,48.2,17.6,30,29.93,10.0,NE,8.1,-,N/A,,Mostly Cloudy,40,2013-03-23 22:15:00
5:35 PM,48.2,17.6,30,29.93,7.0,NE,9.2,-,N/A,,Clear,40,2013-03-23 22:35:00
5:55 PM,48.2,15.8,27,29.94,7.0,NE,5.8,-,N/A,,Clear,40,2013-03-23 22:55:00
6:15 PM,48.2,15.8,27,29.95,10.0,NE,5.8,-,N/A,,Scattered Clouds,50,2013-03-23 23:15:00
6:35 PM,46.4,15.8,29,29.95,10.0,NE,8.1,-,N/A,,Scattered Clouds,50,2013-03-23 23:35:00
6:55 PM,46.4,15.8,29,29.95,10.0,NE,6.9,-,N/A,,Scattered Clouds,40,2013-03-23 23:55:00
7:15 PM,46.4,15.8,29,29.95,10.0,NE,5.8,-,N/A,,Mostly Cloudy,40,2013-03-24 00:15:00
7:35 PM,46.4,15.8,29,29.95,10.0,NNE,8.1,-,N/A,,Mostly Cloudy,30,2013-03-24 00:35:00
7:55 PM,46.4,17.6,32,29.94,10.0,NNE,11.5,-,N/A,,Overcast,30,2013-03-24 00:55:00
8:15 PM,44.6,19.4,37,29.95,10.0,NE,12.7,18.4,N/A,,Overcast,40,2013-03-24 01:15:00
8:35 PM,44.6,19.4,37,29.96,10.0,NE,4.6,-,N/A,,Overcast,40,2013-03-24 01:35:00
8:55 PM,44.6,19.4,37,29.97,10.0,NE,6.9,-,N/A,,Overcast,50,2013-03-24 01:55:00
9:15 PM,41.0,26.6,57,29.98,10.0,NE,11.5,20.7,N/A,Rain,Light Rain,40,2013-03-24 02:15:00
9:35 PM,39.2,28.4,65,29.98,10.0,NE,10.4,-,N/A,Rain,Light Rain,50,2013-03-24 02:35:00
9:55 PM,37.4,28.4,70,29.98,5.0,NE,10.4,-,N/A,Snow,Light Snow,50,2013-03-24 02:55:00
10:15 PM,35.6,28.4,75,29.98,1.5,NE,10.4,16.1,N/A,Snow,Light Snow,50,2013-03-24 03:15:00
10:35 PM,35.6,28.4,75,29.98,1.5,NE,8.1,-,0.01,Snow,Light Snow,40,2013-03-24 03:35:00
10:55 PM,35.6,28.4,75,29.99,2.0,NE,9.2,17.3,0.01,Snow,Light Snow,40,2013-03-24 03:55:00
11:15 PM,35.6,28.4,75,29.98,2.0,NE,6.9,-,N/A,Snow,Light Snow,40,2013-03-24 04:15:00
11:35 PM,35.6,28.4,75,29.98,1.8,NNE,5.8,-,N/A,Snow,Light Snow,30,2013-03-24 04:35:00
11:55 PM,35.6,28.4,75,29.98,1.8,NE,8.1,-,N/A,Snow,Light Snow,40,2013-03-24 04:55:00